User: anonymous   Login
Location: Wavehorne
(51.0500°N, 0.8333°E)
Time: 01:12:29
(UTC+00:00)
Language:

SJ 16-02 - Orbit

View from above orbital plane
View from above orbital plane
View from above satellite
View from above satellite

Ground track
Ground track

The orbit data is extracted from the following two-line orbital elements,

1 41634U 16043A   21259.54525647  .00000148  00000-0  20180-4 0  9997
2 41634  75.0043 299.8456 0008816 275.6381  84.3791 14.85843252282979
Epoch (UTC): 16 September 2021 13:05:10
Eccentricity: 0.0008816
inclination: 75.0043°
perigee height: 605 km
apogee height: 617 km
right ascension of ascending node: 299.8456°
argument of perigee: 275.6381°
revolutions per day: 14.85843252
mean anomaly at epoch: 84.3791°
orbit number at epoch: 28297

The dashed part of the orbit path shows where the satellite is in the earth's shadow,  

DLR